Regional Weather Roundup
Issued by NWS

Home | Current Version | Previous Version | Graphics & Text | Print | Product List | Glossary On
Versions: 1 2 3 4 5 6 7 8 9 10 11 12 13 14 15 16 17 18 19 20 21 22 23 24 25 26 27 28 29 30 31 32 33 34 35 36 37 38 39 40 41 42 43 44 45 46 47 48 49 50
000
ASUS43 KLOT 130306
RWRIL

ILLINOIS REGIONAL WEATHER ROUNDUP
NATIONAL WEATHER SERVICE CHICAGO/ROMEOVILLE IL
1000 PM CDT SAT JUL 12 2014

NOTE: "FAIR" INDICATES FEW OR NO CLOUDS BELOW 12,000 FEET WITH NO
SIGNIFICANT WEATHER AND/OR OBSTRUCTIONS TO VISIBILITY.

* THESE STATIONS ARE NOT UNDER NWS QUALITY CONTROL. THEY ALSO MAY NOT
  REPORT WEATHER SUCH AS PRECIPITATION OR FOG.

ILZ001-002-007-009-015-016-024-130400-
NORTHWEST ILLINOIS

CITY           SKY/WX    TMP DP  RH WIND       PRES   REMARKS
MOLINE         LGT RAIN  73  68  84 SW14G24   29.87R
STERLING*      CLOUDY    75  72  88 NW7G18    29.93R
SAVANNA*       TSTM      72  69  93 NW5         N/A
$$

ILZ003-004-008-010-011-017-018-130400-
NORTH CENTRAL ILLINOIS

CITY           SKY/WX    TMP DP  RH WIND       PRES   REMARKS
ROCKFORD       TSTM      77  74  90 S17       29.84F VSB 1
FREEPORT*      TSTM      65  63  93 SW5       29.96R
ROCHELLE*      TSTM      77  74  91 W7        29.90R
DE KALB*       LGT RAIN  75  74  95 S8        29.89R
PERU*          RAIN      80  74  80 SW8       29.89R HX  85
$$

ILZ005-006-012>014-019>023-130400-
NORTHEAST ILLINOIS

CITY           SKY/WX    TMP DP  RH WIND       PRES   REMARKS
CHICAGO-OHARE  LGT RAIN  78  72  81 S9        29.84F HX  80
CHICAGO-MIDWAY LGT RAIN  80  77  90 S13       29.84F HX  87
AURORA         LGT RAIN  78  75  90 S8        29.88R HX  81
LANSING*       LGT RAIN  76  73  90 S6        29.88F
JOLIET*        LGT RAIN  79  74  85 SW7       29.88S HX  82
WAUKEGAN       CLOUDY    75  71  87 S12       29.81F
DUPAGE AIRPORT CLOUDY    78  75  90 S9        29.86S THUNDER HX  81
KANKAKEE*      CLOUDY    78  75  91 S10       29.91S HX  80
WHEELING       CLOUDY    79  75  87 S10       29.86R HX  83
MORRIS*        LGT RAIN  80  76  87 SW10      29.88R HX  86
ROMEOVILLE*    LGT RAIN  77  76  96 SW9       29.87S
NORTHERLY ISL    N/A     77  75  93 S12         N/A
$$

LMZ740>746-130400-
SOUTHERN LAKE MICHIGAN

STATION/POSITION SKY/WX   TEMP    WIND        PRES    VSBY  WAVE
                          AIR SEA DIR/SP/G                  HT/PER
                          (F)     (DEG/KT/KT) (MB)    (MI)  (FT/S)
SOUTHERN BUOY              64 61  160/ 10/ 12 1010.0F         1/ 4
WAUKEGAN HARBOR            61     200/ 13/ 13 1011.2F
HARRISON CRIB              72     170/ 17/ 18   N/A
BURNHAM HARBOR             78     190/ 10/ 11   N/A
CALUMET HARBOR             77     170/  9/ 12 1011.7F
BURNS HARBOR               76     170/  9/ 17 1012.5S
MICHIGAN CITY              76     140/ 11/ 16   N/A
$$

ILZ025>027-034>036-040-047-049-050-058-095>099-130400-
WEST-CENTRAL ILLINOIS

CITY           SKY/WX    TMP DP  RH WIND       PRES   REMARKS
QUINCY         CLOUDY    82  71  69 SW9       29.96R HX  86
GALESBURG*     TSTM      78  75  91 S12       29.91R HX  80
MACOMB*        CLOUDY    82  73  74 SW9       29.95R HX  86
JACKSONVILLE*  MOCLDY    83  73  69 S9        29.96S HX  89
PITTSFIELD*    PTCLDY    82  71  68 SW6       29.97R HX  86
$$

ILZ028>032-037-038-041>044-048-051>054-059>061-130400-
CENTRAL ILLINOIS

CITY           SKY/WX    TMP DP  RH WIND       PRES   REMARKS
PONTIAC        CLOUDY    81  77  89 S8        29.90S HX  88
BLOOMINGTON    MOCLDY    79  72  79 SW14      29.94S HX  82
DECATUR        PTCLDY    81  73  76 S13       29.97R HX  86
PEORIA         CLOUDY    83  73  72 SW13      29.90S HX  89
LACON*         CLOUDY    82  73  74 SW12G17   29.86F HX  87
LINCOLN*       PTCLDY    82  71  70 S3        29.91R HX  86
SPRINGFIELD    PTCLDY    84  71  65 SW8       29.95S HX  89
TAYLORVILLE    PTCLDY    77  72  83 S10       29.97S
$$

ILZ033-039-045-046-055>057-062-063-130400-
EAST-CENTRAL ILLINOIS

CITY           SKY/WX    TMP DP  RH WIND       PRES   REMARKS
CHAMPAIGN      PTCLDY    78  76  93 S12       29.96S HX  81
RANTOUL*       PTCLDY    80  75  85 S8        29.96S HX  84
MATTOON        CLEAR     80  75  84 S9        29.98F HX  85
PARIS*         CLEAR     76  74  94 S7        30.00S
$$

ILZ079-100>102-130400-
SOUTHWEST ILLINOIS

CITY           SKY/WX    TMP DP  RH WIND       PRES   REMARKS
ALTON          CLEAR     81  77  89 S7        29.99S HX  88
CAHOKIA*       CLEAR     83  73  72 S5        30.00R HX  89
SPARTA*        CLEAR     81  73  78 S6        30.04R HX  85
$$

ILZ064>066-069>071-074>076-080>082-084>086-088>090-092>094-130400-
SOUTH-CENTRAL ILLINOIS

CITY           SKY/WX    TMP DP  RH WIND       PRES   REMARKS
CARBONDALE     CLEAR     82  74  76 S8        30.04R HX  88
CAIRO*         CLEAR     83  72  70 S5        30.06R HX  88
MARION         CLEAR     81  73  78 SW6       30.05R HX  85
MT. VERNON     PTCLDY    81  72  74 S9        30.04R HX  84
CENTRALIA*     PTCLDY    79  73  80 S9        30.03R HX  83
SALEM*         PTCLDY    82  76  82 S8        30.02R HX  89
METROPOLIS*    PTCLDY    80  70  71 S3        30.06R HX  83
$$

ILZ067-068-072-073-078-083-087-091-130400-
SOUTHEAST ILLINOIS

CITY           SKY/WX    TMP DP  RH WIND       PRES   REMARKS
FLORA*         CLEAR     78  73  83 S6        30.03R HX  81
HARRISBURG*    MOCLDY    80  73  80 S6        30.06R HX  84
ROBINSON*      CLEAR     79  75  89 S6        30.03R HX  82
CARMI*         PTCLDY    78  75  91 S6        30.04R HX  81
$$

ABBREVIATIONS USED IN REMARKS
   TC - TEMPERATURE IN CELSIUS
  WCI - WIND CHILL INDEX
   HX - HEAT INDEX
  VSB - VISIBILITY
$$




USA.gov is the U.S. government's official web portal to all federal, state and local government web resources and services.